Time,TemperatureF,DewpointF,PressureIn,WindDirection,WindDirectionDegrees,WindSpeedMPH,WindSpeedGustMPH,Humidity,HourlyPrecipIn,Conditions,Clouds,dailyrainin,SolarRadiationWatts/m^2,SoftwareType,DateUTC
2013-08-24 00:04:00,62.0,60.0,-100.00,East,95,0.0,0.0,94,0.00,,,1.45,0.000000,,2013-08-24 04:04:00,
2013-08-24 00:14:00,62.0,60.0,-100.00,East,95,0.0,0.0,94,0.00,,,1.45,0.000000,,2013-08-24 04:14:00,
2013-08-24 00:23:00,61.0,60.0,-100.00,ESE,105,0.0,2.0,95,0.00,,,1.45,0.000000,,2013-08-24 04:23:00,
2013-08-24 00:54:00,61.0,60.0,-100.00,ESE,105,0.0,2.0,95,0.00,,,1.45,0.000000,,2013-08-24 04:54:00,
2013-08-24 01:03:00,61.0,60.0,-100.00,ESE,105,0.0,2.0,95,0.00,,,1.45,0.000000,,2013-08-24 05:03:00,
2013-08-24 01:13:00,61.0,60.0,-100.00,ESE,105,0.0,2.0,95,0.00,,,1.45,0.000000,,2013-08-24 05:13:00,
2013-08-24 01:53:00,59.0,58.0,-100.00,East,94,0.0,0.0,95,0.00,,,1.39,0.000000,,2013-08-24 05:53:00,
2013-08-24 02:02:00,59.0,58.0,-100.00,East,94,0.0,0.0,95,0.00,,,1.39,0.000000,,2013-08-24 06:02:00,
2013-08-24 02:12:00,59.0,58.0,-100.00,East,94,0.0,0.0,95,0.00,,,1.39,0.000000,,2013-08-24 06:12:00,
2013-08-24 02:22:00,59.0,58.0,-100.00,East,94,0.0,0.0,95,0.00,,,1.39,0.000000,,2013-08-24 06:22:00,
2013-08-24 02:52:00,59.0,58.0,-100.00,East,88,0.0,0.0,97,0.00,,,1.05,0.000000,,2013-08-24 06:52:00,
2013-08-24 03:02:00,59.0,58.0,-100.00,East,88,0.0,0.0,97,0.00,,,1.05,0.000000,,2013-08-24 07:02:00,
2013-08-24 03:12:00,59.0,58.0,-100.00,East,88,0.0,0.0,97,0.00,,,1.05,0.000000,,2013-08-24 07:12:00,
2013-08-24 03:22:00,59.0,58.0,-100.00,East,88,0.0,0.0,97,0.00,,,1.05,0.000000,,2013-08-24 07:22:00,
2013-08-24 03:53:00,58.0,57.0,-100.00,East,94,0.0,0.0,98,0.00,,,0.05,0.000000,,2013-08-24 07:53:00,
2013-08-24 04:02:00,58.0,57.0,-100.00,East,94,0.0,0.0,98,0.00,,,0.05,0.000000,,2013-08-24 08:02:00,
2013-08-24 04:12:00,58.0,57.0,-100.00,East,94,0.0,0.0,98,0.00,,,0.05,0.000000,,2013-08-24 08:12:00,
2013-08-24 04:22:00,58.0,57.0,-100.00,East,94,0.0,0.0,98,0.00,,,0.05,0.000000,,2013-08-24 08:22:00,
2013-08-24 05:23:00,56.0,56.0,-100.00,SW,218,0.0,0.0,99,-99.99,,,-99.99,0.000000,,2013-08-24 09:23:00,
2013-08-24 05:53:00,56.0,56.0,-100.00,SW,218,0.0,0.0,99,-99.99,,,-99.99,0.000000,,2013-08-24 09:53:00,
2013-08-24 06:04:00,56.0,56.0,-100.00,SW,218,0.0,0.0,99,-99.99,,,-99.99,0.000000,,2013-08-24 10:04:00,
2013-08-24 06:13:00,56.0,56.0,-100.00,SW,218,0.0,0.0,99,-99.99,,,-99.99,0.000000,,2013-08-24 10:13:00,
2013-08-24 06:53:00,56.0,56.0,-100.00,ESE,115,0.0,0.0,99,0.00,,,-99.99,0.000000,,2013-08-24 10:53:00,
2013-08-24 07:03:00,56.0,56.0,-100.00,ESE,115,0.0,0.0,99,0.00,,,-99.99,0.000000,,2013-08-24 11:03:00,
2013-08-24 07:12:00,56.0,56.0,-100.00,ESE,115,0.0,0.0,99,0.00,,,-99.99,0.000000,,2013-08-24 11:12:00,
2013-08-24 07:22:00,56.0,56.0,-100.00,ESE,115,0.0,0.0,99,0.00,,,-99.99,0.000000,,2013-08-24 11:22:00,
2013-08-24 07:52:00,56.0,56.0,-100.00,ESE,110,0.0,0.0,99,0.00,,,-99.99,5.000000,,2013-08-24 11:52:00,
2013-08-24 08:02:00,56.0,56.0,-100.00,ESE,110,0.0,0.0,99,0.00,,,-99.99,5.000000,,2013-08-24 12:02:00,
2013-08-24 08:12:00,56.0,56.0,-100.00,ESE,110,0.0,0.0,99,0.00,,,-99.99,5.000000,,2013-08-24 12:12:00,
2013-08-24 08:21:00,56.0,56.0,-100.00,ESE,110,0.0,0.0,99,0.00,,,-99.99,5.000000,,2013-08-24 12:21:00,
2013-08-24 08:52:00,57.0,57.0,-100.00,WSW,239,0.0,0.0,99,0.00,,,0.00,31.000000,,2013-08-24 12:52:00,
2013-08-24 09:02:00,57.0,57.0,-100.00,WSW,239,0.0,0.0,99,0.00,,,0.00,31.000000,,2013-08-24 13:02:00,
2013-08-24 09:11:00,57.0,57.0,-100.00,WSW,239,0.0,0.0,99,0.00,,,0.00,31.000000,,2013-08-24 13:11:00,
2013-08-24 09:22:00,57.0,57.0,-100.00,WSW,239,0.0,0.0,99,0.00,,,0.00,31.000000,,2013-08-24 13:22:00,
2013-08-24 09:52:00,67.0,64.0,-100.00,East,89,1.0,2.0,89,0.00,,,0.00,288.000000,,2013-08-24 13:52:00,
2013-08-24 10:02:00,67.0,64.0,-100.00,East,89,1.0,2.0,89,0.00,,,0.00,288.000000,,2013-08-24 14:02:00,
2013-08-24 10:11:00,67.0,64.0,-100.00,East,89,1.0,2.0,89,0.00,,,0.00,288.000000,,2013-08-24 14:11:00,
2013-08-24 10:22:00,67.0,64.0,-100.00,East,89,1.0,2.0,89,0.00,,,0.00,288.000000,,2013-08-24 14:22:00,
2013-08-24 10:52:00,73.0,66.0,-100.00,NNW,342,1.0,3.0,78,0.00,,,-99.99,511.000000,,2013-08-24 14:52:00,
2013-08-24 11:01:00,73.0,66.0,-100.00,NNW,342,1.0,3.0,78,0.00,,,-99.99,511.000000,,2013-08-24 15:01:00,
2013-08-24 11:12:00,73.0,66.0,-100.00,NNW,342,1.0,3.0,78,0.00,,,-99.99,511.000000,,2013-08-24 15:12:00,
2013-08-24 11:22:00,73.0,66.0,-100.00,NNW,342,1.0,3.0,78,0.00,,,-99.99,511.000000,,2013-08-24 15:22:00,
2013-08-24 11:23:00,77.0,64.0,-100.00,SW,216,2.0,4.0,64,0.00,,,0.00,710.000000,,2013-08-24 15:23:00,
2013-08-24 11:54:00,77.0,64.0,-100.00,SW,216,2.0,4.0,64,0.00,,,0.00,710.000000,,2013-08-24 15:54:00,
2013-08-24 12:04:00,77.0,64.0,-100.00,SW,216,2.0,4.0,64,0.00,,,0.00,710.000000,,2013-08-24 16:04:00,
2013-08-24 12:14:00,77.0,64.0,-100.00,SW,216,2.0,4.0,64,0.00,,,0.00,710.000000,,2013-08-24 16:14:00,
2013-08-24 12:23:00,79.0,62.0,-100.00,NE,38,3.0,6.0,57,0.00,,,0.00,873.000000,,2013-08-24 16:23:00,
2013-08-24 12:53:00,79.0,62.0,-100.00,NE,38,3.0,6.0,57,0.00,,,0.00,873.000000,,2013-08-24 16:53:00,
2013-08-24 13:02:00,79.0,62.0,-100.00,NE,38,3.0,6.0,57,0.00,,,0.00,873.000000,,2013-08-24 17:02:00,
2013-08-24 13:12:00,79.0,62.0,-100.00,NE,38,3.0,6.0,57,0.00,,,0.00,873.000000,,2013-08-24 17:12:00,
2013-08-24 13:52:00,82.0,61.0,-100.00,ENE,68,2.0,6.0,49,0.00,,,0.00,977.000000,,2013-08-24 17:52:00,
2013-08-24 14:03:00,82.0,61.0,-100.00,ENE,68,2.0,6.0,49,0.00,,,0.00,977.000000,,2013-08-24 18:03:00,
2013-08-24 14:13:00,82.0,61.0,-100.00,ENE,68,2.0,6.0,49,0.00,,,0.00,977.000000,,2013-08-24 18:13:00,
2013-08-24 14:22:00,82.0,61.0,-100.00,ENE,68,2.0,6.0,49,0.00,,,0.00,977.000000,,2013-08-24 18:22:00,
2013-08-24 14:53:00,82.0,60.0,-100.00,SSW,200,2.0,7.0,48,0.00,,,0.00,857.000000,,2013-08-24 18:53:00,
2013-08-24 15:01:00,82.0,60.0,-100.00,SSW,200,2.0,7.0,48,0.00,,,0.00,857.000000,,2013-08-24 19:01:00,
2013-08-24 15:12:00,82.0,60.0,-100.00,SSW,200,2.0,7.0,48,0.00,,,0.00,857.000000,,2013-08-24 19:12:00,
2013-08-24 15:22:00,82.0,60.0,-100.00,SSW,200,2.0,7.0,48,0.00,,,0.00,857.000000,,2013-08-24 19:22:00,
2013-08-24 15:52:00,84.0,58.0,-100.00,WNW,300,3.0,6.0,42,0.00,,,0.00,988.000000,,2013-08-24 19:52:00,
2013-08-24 16:02:00,84.0,58.0,-100.00,WNW,300,3.0,6.0,42,0.00,,,0.00,988.000000,,2013-08-24 20:02:00,
2013-08-24 16:12:00,84.0,58.0,-100.00,WNW,300,3.0,6.0,42,0.00,,,0.00,988.000000,,2013-08-24 20:12:00,
2013-08-24 16:22:00,84.0,58.0,-100.00,WNW,300,3.0,6.0,42,0.00,,,0.00,988.000000,,2013-08-24 20:22:00,
2013-08-24 16:53:00,85.0,57.0,-100.00,SSE,161,1.0,7.0,39,0.00,,,0.00,890.000000,,2013-08-24 20:53:00,
2013-08-24 17:02:00,85.0,57.0,-100.00,SSE,161,1.0,7.0,39,0.00,,,0.00,890.000000,,2013-08-24 21:02:00,
2013-08-24 17:11:00,85.0,57.0,-100.00,SSE,161,1.0,7.0,39,0.00,,,0.00,890.000000,,2013-08-24 21:11:00,
2013-08-24 17:22:00,85.0,57.0,-100.00,SSE,161,1.0,7.0,39,0.00,,,0.00,890.000000,,2013-08-24 21:22:00,
2013-08-24 17:23:00,81.0,58.0,-100.00,ESE,117,2.0,4.0,46,0.00,,,0.00,453.000000,,2013-08-24 21:23:00,
2013-08-24 17:55:00,81.0,58.0,-100.00,ESE,117,2.0,4.0,46,0.00,,,0.00,453.000000,,2013-08-24 21:55:00,
2013-08-24 18:04:00,81.0,58.0,-100.00,ESE,117,2.0,4.0,46,0.00,,,0.00,453.000000,,2013-08-24 22:04:00,
2013-08-24 18:14:00,81.0,58.0,-100.00,ESE,117,2.0,4.0,46,0.00,,,0.00,453.000000,,2013-08-24 22:14:00,
2013-08-24 18:53:00,76.0,64.0,-100.00,ESE,108,2.0,4.0,67,0.00,,,0.00,297.000000,,2013-08-24 22:53:00,
2013-08-24 19:03:00,76.0,64.0,-100.00,ESE,108,2.0,4.0,67,0.00,,,0.00,297.000000,,2013-08-24 23:03:00,
2013-08-24 19:12:00,76.0,64.0,-100.00,ESE,108,2.0,4.0,67,0.00,,,0.00,297.000000,,2013-08-24 23:12:00,
2013-08-24 19:22:00,76.0,64.0,-100.00,ESE,108,2.0,4.0,67,0.00,,,0.00,297.000000,,2013-08-24 23:22:00,
2013-08-24 21:22:00,66.0,61.0,-100.00,ESE,110,2.0,3.0,83,0.00,,,0.00,15.000000,,2013-08-25 01:22:00,
2013-08-24 21:52:00,63.0,59.0,-100.00,East,94,0.0,2.0,88,0.00,,,0.00,0.000000,,2013-08-25 01:52:00,
2013-08-24 22:02:00,63.0,59.0,-100.00,East,94,0.0,2.0,88,0.00,,,0.00,0.000000,,2013-08-25 02:02:00,
2013-08-24 22:12:00,63.0,59.0,-100.00,East,94,0.0,2.0,88,0.00,,,0.00,0.000000,,2013-08-25 02:12:00,
2013-08-24 22:22:00,63.0,59.0,-100.00,East,94,0.0,2.0,88,0.00,,,0.00,0.000000,,2013-08-25 02:22:00,
2013-08-24 22:23:00,62.0,60.0,-100.00,East,85,0.0,0.0,93,0.00,,,0.00,0.000000,,2013-08-25 02:23:00,
2013-08-24 22:52:00,62.0,60.0,-100.00,East,85,0.0,0.0,93,0.00,,,0.00,0.000000,,2013-08-25 02:52:00,
2013-08-24 23:02:00,62.0,60.0,-100.00,East,85,0.0,0.0,93,0.00,,,0.00,0.000000,,2013-08-25 03:02:00,
2013-08-24 23:11:00,62.0,60.0,-100.00,East,85,0.0,0.0,93,0.00,,,0.00,0.000000,,2013-08-25 03:11:00,
2013-08-24 23:23:00,61.0,59.0,-100.00,East,94,0.0,2.0,94,0.00,,,0.00,0.000000,,2013-08-25 03:23:00,
2013-08-24 23:54:00,61.0,59.0,-100.00,East,94,0.0,2.0,94,0.00,,,0.00,0.000000,,2013-08-25 03:54:00,